| time (UTC) | temp F | wind direction | speed MPH | gust MPH | rain 1hr in | rain 24hr in | rain mn in | humidity % | barometer mb |
| 20260505014209 | 60 | 314 | 2.0 | 7.0 | 0.06 | 0.11 | 0.11 | 71 | 1010.0 |
| 20260505013932 | 60 | 292 | 2.0 | 10.0 | 0.06 | 0.11 | 0.11 | 67 | 1009.9 |
| 20260505013209 | 61 | 320 | 2.0 | 10.0 | 0.06 | 0.10 | 0.10 | 68 | 1009.6 |
| 20260505012708 | 61 | 341 | 2.0 | 5.0 | 0.05 | 0.09 | 0.09 | 69 | 1009.5 |
| 20260505012209 | 61 | 319 | 1.0 | 3.0 | 0.04 | 0.08 | 0.08 | 70 | 1009.5 |
| 20260505011709 | 61 | 24 | 0.0 | 2.0 | 0.04 | 0.07 | 0.07 | 74 | 1009.2 |
| 20260505011208 | 62 | 326 | 0.0 | 2.0 | 0.04 | 0.07 | 0.07 | 75 | 1009.1 |
| 20260505010708 | 62 | 314 | 0.0 | 0.0 | 0.05 | 0.07 | 0.07 | 78 | 1009.0 |
| 20260505010208 | 62 | 340 | 0.0 | 0.0 | 0.04 | 0.06 | 0.06 | 80 | 1009.1 |
| 20260505005709 | 63 | 340 | 0.0 | 0.0 | 0.04 | 0.06 | 0.06 | 77 | 1009.1 |
| 20260505005207 | 63 | 341 | 0.0 | 0.0 | 0.03 | 0.05 | 0.06 | 76 | 1009.1 |
| 20260505004707 | 63 | 93 | 0.0 | 0.0 | 0.03 | 0.05 | 0.05 | 74 | 1009.1 |
| 20260505004659 | 63 | 94 | 0.0 | 0.0 | 0.03 | 0.05 | 0.05 | 73 | 1009.2 |
| 20260505003925 | 63 | 45 | 0.0 | 0.0 | 0.03 | 0.05 | 0.05 | 74 | 1009.4 |
| 20260505003207 | 63 | 45 | 0.0 | 0.0 | 0.02 | 0.04 | 0.04 | 69 | 1009.2 |
| 20260505002707 | 64 | 316 | 0.0 | 0.0 | 0.04 | 0.04 | 0.04 | 70 | 1009.2 |
| 20260505002208 | 64 | 316 | 0.0 | 3.0 | 0.04 | 0.04 | 0.04 | 63 | 1009.1 |
| 20260505001928 | 64 | 76 | 0.0 | 3.0 | 0.03 | 0.03 | 0.03 | 61 | 1009.0 |
| 20260505001206 | 65 | 125 | 0.0 | 0.0 | 0.03 | 0.03 | 0.03 | 62 | 1009.0 |
| 20260505000922 | 65 | 204 | 0.0 | 6.0 | 0.02 | 0.02 | 0.02 | 62 | 1008.7 |
| 20260505000207 | 65 | 56 | 0.0 | 6.0 | 0.02 | 0.02 | 0.02 | 57 | 1008.5 |
| 20260504235706 | 65 | 97 | 0.0 | 6.0 | 0.02 | 0.02 | 0.02 | 56 | 1008.4 |
| 20260504235206 | 64 | 17 | 2.0 | 7.0 | 0.02 | 0.02 | 0.02 | 57 | 1008.3 |
| 20260504234929 | 63 | 27 | 3.0 | 7.0 | 0.02 | 0.02 | 0.02 | 61 | 1008.5 |
| 20260504234207 | 63 | 30 | 3.0 | 11.0 | 0.02 | 0.02 | 0.02 | 62 | 1008.7 |
| 20260504233706 | 64 | 354 | 3.0 | 15.0 | 0.02 | 0.02 | 0.02 | 55 | 1009.0 |
| 20260504233206 | 66 | 317 | 6.0 | 15.0 | 0.02 | 0.02 | 0.02 | 53 | 1009.4 |
| 20260504232929 | 69 | 289 | 5.0 | 11.0 | 0.00 | 0.00 | 0.00 | 44 | 1009.5 |
| 20260504232206 | 71 | 320 | 4.0 | 16.0 | 0.00 | 0.00 | 0.00 | 36 | 1009.0 |
| 20260504231706 | 73 | 321 | 6.0 | 16.0 | 0.00 | 0.00 | 0.00 | 32 | 1009.1 |
| 20260504231206 | 74 | 296 | 8.0 | 17.0 | 0.00 | 0.00 | 0.00 | 28 | 1008.9 |
| 20260504230705 | 74 | 309 | 12.0 | 21.0 | 0.00 | 0.00 | 0.00 | 27 | 1008.8 |
| 20260504230205 | 75 | 259 | 9.0 | 21.0 | 0.00 | 0.00 | 0.00 | 26 | 1008.5 |
| 20260504225705 | 75 | 299 | 11.0 | 21.0 | 0.00 | 0.00 | 0.00 | 25 | 1008.3 |
| 20260504225206 | 76 | 272 | 9.0 | 21.0 | 0.00 | 0.00 | 0.00 | 25 | 1008.3 |
| 20260504224705 | 76 | 285 | 8.0 | 19.0 | 0.00 | 0.00 | 0.00 | 23 | 1008.1 |
| 20260504224205 | 76 | 303 | 9.0 | 19.0 | 0.00 | 0.00 | 0.00 | 22 | 1008.1 |
| 20260504223705 | 76 | 237 | 9.0 | 23.0 | 0.00 | 0.00 | 0.00 | 22 | 1008.1 |
| 20260504223205 | 77 | 275 | 12.0 | 23.0 | 0.00 | 0.00 | 0.00 | 22 | 1008.1 |
| 20260504222705 | 77 | 293 | 9.0 | 17.0 | 0.00 | 0.00 | 0.00 | 21 | 1008.1 |
| 20260504222204 | 77 | 312 | 11.0 | 19.0 | 0.00 | 0.00 | 0.00 | 21 | 1008.1 |
| 20260504221704 | 77 | 282 | 9.0 | 20.0 | 0.00 | 0.00 | 0.00 | 20 | 1007.8 |
| 20260504221204 | 78 | 319 | 11.0 | 20.0 | 0.00 | 0.00 | 0.00 | 20 | 1007.9 |
| 20260504221146 | 78 | 279 | 10.0 | 17.0 | 0.00 | 0.00 | 0.00 | 20 | 1007.8 |
| 20260504220203 | 79 | 288 | 10.0 | 16.0 | 0.00 | 0.00 | 0.00 | 20 | 1007.9 |
| 20260504215704 | 79 | 309 | 8.0 | 15.0 | 0.00 | 0.00 | 0.00 | 20 | 1008.1 |
| 20260504215204 | 79 | 292 | 8.0 | 15.0 | 0.00 | 0.00 | 0.00 | 20 | 1008.2 |
| 20260504214703 | 80 | 264 | 8.0 | 13.0 | 0.00 | 0.00 | 0.00 | 19 | 1008.1 |
| 20260504214204 | 79 | 298 | 6.0 | 11.0 | 0.00 | 0.00 | 0.00 | 19 | 1007.8 |
| 20260504213704 | 80 | 305 | 6.0 | 14.0 | 0.00 | 0.00 | 0.00 | 20 | 1007.8 |
| 20260504213203 | 80 | 302 | 6.0 | 14.0 | 0.00 | 0.00 | 0.00 | 20 | 1007.7 |
| 20260504212703 | 80 | 272 | 9.0 | 13.0 | 0.00 | 0.00 | 0.00 | 20 | 1007.7 |
| 20260504212203 | 80 | 313 | 6.0 | 12.0 | 0.00 | 0.00 | 0.00 | 18 | 1007.7 |
| 20260504212142 | 80 | 285 | 7.0 | 13.0 | 0.00 | 0.00 | 0.00 | 18 | 1007.9 |
| 20260504211203 | 80 | 305 | 6.0 | 13.0 | 0.00 | 0.00 | 0.00 | 18 | 1008.1 |
| 20260504210702 | 80 | 303 | 5.0 | 10.0 | 0.00 | 0.00 | 0.00 | 19 | 1008.2 |
| 20260504210203 | 80 | 300 | 4.0 | 9.0 | 0.00 | 0.00 | 0.00 | 19 | 1008.3 |
| 20260504205703 | 80 | 317 | 5.0 | 9.0 | 0.00 | 0.00 | 0.00 | 19 | 1008.2 |
| 20260504205203 | 80 | 245 | 2.0 | 11.0 | 0.00 | 0.00 | 0.00 | 19 | 1008.3 |
| 20260504204702 | 79 | 261 | 2.0 | 11.0 | 0.00 | 0.00 | 0.00 | 19 | 1008.3 |
| 20260504204202 | 80 | 299 | 3.0 | 7.0 | 0.00 | 0.00 | 0.00 | 19 | 1008.3 |
| 20260504203922 | 80 | 278 | 3.0 | 7.0 | 0.00 | 0.00 | 0.00 | 18 | 1008.3 |
| 20260504203202 | 80 | 298 | 2.0 | 11.0 | 0.00 | 0.00 | 0.00 | 19 | 1008.3 |
| 20260504202702 | 80 | 255 | 4.0 | 11.0 | 0.00 | 0.00 | 0.00 | 19 | 1008.3 |
| 20260504202201 | 80 | 219 | 3.0 | 6.0 | 0.00 | 0.00 | 0.00 | 20 | 1008.4 |
| 20260504201927 | 80 | 343 | 1.0 | 7.0 | 0.00 | 0.00 | 0.00 | 21 | 1008.4 |
| 20260504201201 | 79 | 299 | 4.0 | 7.0 | 0.00 | 0.00 | 0.00 | 20 | 1008.6 |
| 20260504200701 | 79 | 354 | 2.0 | 10.0 | 0.00 | 0.00 | 0.00 | 23 | 1008.6 |
| 20260504200201 | 80 | 286 | 4.0 | 10.0 | 0.00 | 0.00 | 0.00 | 22 | 1008.5 |
| 20260504195701 | 81 | 333 | 4.0 | 7.0 | 0.00 | 0.00 | 0.00 | 22 | 1008.5 |
| 20260504195201 | 81 | 79 | 1.0 | 5.0 | 0.00 | 0.00 | 0.00 | 20 | 1008.5 |
| 20260504194921 | 80 | 257 | 2.0 | 4.0 | 0.00 | 0.00 | 0.00 | 21 | 1008.4 |
| 20260504194201 | 80 | 6 | 2.0 | 7.0 | 0.00 | 0.00 | 0.00 | 21 | 1008.4 |
| 20260504193701 | 80 | 189 | 4.0 | 10.0 | 0.00 | 0.00 | 0.00 | 22 | 1008.5 |
| 20260504193201 | 79 | 193 | 6.0 | 10.0 | 0.00 | 0.00 | 0.00 | 22 | 1008.5 |
| 20260504192929 | 78 | 298 | 1.0 | 6.0 | 0.00 | 0.00 | 0.00 | 23 | 1008.5 |
| 20260504192201 | 78 | 257 | 2.0 | 6.0 | 0.00 | 0.00 | 0.00 | 23 | 1008.5 |
| 20260504191700 | 78 | 16 | 2.0 | 5.0 | 0.00 | 0.00 | 0.00 | 25 | 1008.6 |
| 20260504191200 | 77 | 0 | 1.0 | 6.0 | 0.00 | 0.00 | 0.00 | 24 | 1008.5 |
| 20260504190705 | 77 | 343 | 2.0 | 6.0 | 0.00 | 0.00 | 0.00 | 25 | 1008.5 |
| 20260504190200 | 77 | 17 | 2.0 | 6.0 | 0.00 | 0.00 | 0.00 | 24 | 1008.6 |
| 20260504185700 | 77 | 319 | 2.0 | 10.0 | 0.00 | 0.00 | 0.00 | 25 | 1008.9 |
| 20260504185649 | 77 | 6 | 3.0 | 10.0 | 0.00 | 0.00 | 0.00 | 24 | 1008.7 |
| 20260504184700 | 77 | 350 | 2.0 | 5.0 | 0.00 | 0.00 | 0.00 | 25 | 1009.0 |
| 20260504184200 | 77 | 333 | 1.0 | 5.0 | 0.00 | 0.00 | 0.00 | 25 | 1009.0 |
| 20260504183920 | 77 | 317 | 3.0 | 9.0 | 0.00 | 0.00 | 0.00 | 25 | 1009.1 |
| 20260504183159 | 78 | 285 | 4.0 | 9.0 | 0.00 | 0.00 | 0.00 | 23 | 1009.4 |
| 20260504182658 | 79 | 227 | 1.0 | 6.0 | 0.00 | 0.00 | 0.00 | 23 | 1009.2 |
| 20260504182159 | 79 | 283 | 2.0 | 6.0 | 0.00 | 0.00 | 0.00 | 23 | 1009.4 |
| 20260504181659 | 79 | 149 | 1.0 | 2.0 | 0.00 | 0.00 | 0.00 | 23 | 1009.5 |
| 20260504181158 | 79 | 238 | 1.0 | 2.0 | 0.00 | 0.00 | 0.00 | 23 | 1009.5 |
| 20260504180659 | 78 | 224 | 1.0 | 6.0 | 0.00 | 0.00 | 0.00 | 23 | 1009.5 |
| 20260504180422 | 77 | 245 | 1.0 | 6.0 | 0.00 | 0.00 | 0.00 | 23 | 1009.5 |
| 20260504175659 | 77 | 278 | 2.0 | 5.0 | 0.00 | 0.00 | 0.00 | 23 | 1009.6 |
| 20260504175159 | 77 | 214 | 2.0 | 5.0 | 0.00 | 0.00 | 0.00 | 24 | 1009.5 |
| 20260504174658 | 77 | 128 | 1.0 | 5.0 | 0.00 | 0.00 | 0.00 | 24 | 1009.6 |
| 20260504174157 | 77 | 195 | 2.0 | 6.0 | 0.00 | 0.00 | 0.00 | 24 | 1009.7 |
| 20260504173658 | 77 | 248 | 3.0 | 6.0 | 0.00 | 0.00 | 0.00 | 24 | 1009.7 |
| 20260504173158 | 76 | 148 | 2.0 | 6.0 | 0.00 | 0.00 | 0.00 | 24 | 1009.5 |
| 20260504172657 | 76 | 203 | 1.0 | 6.0 | 0.00 | 0.00 | 0.00 | 24 | 1009.6 |
| 20260504172158 | 75 | 302 | 2.0 | 5.0 | 0.00 | 0.00 | 0.00 | 26 | 1009.8 |
| 20260504171658 | 76 | 323 | 2.0 | 5.0 | 0.00 | 0.00 | 0.00 | 27 | 1009.7 |
| 20260504171418 | 76 | 289 | 1.0 | 14.0 | 0.00 | 0.00 | 0.00 | 27 | 1009.6 |
| 20260504170656 | 76 | 241 | 5.0 | 14.0 | 0.00 | 0.00 | 0.00 | 26 | 1009.6 |
| 20260504170157 | 76 | 235 | 4.0 | 9.0 | 0.00 | 0.00 | 0.00 | 26 | 1009.6 |
| 20260504160426 | 75 | 145 | 3.0 | 7.0 | 0.00 | 0.00 | 0.00 | 29 | 1009.8 |
| 20260504150654 | 75 | 286 | 2.0 | 4.0 | 0.00 | 0.00 | 0.00 | 30 | 1009.6 |
| 20260504150154 | 74 | 227 | 0.0 | 4.0 | 0.00 | 0.00 | 0.00 | 31 | 1009.6 |
| 20260504141153 | 70 | 165 | 0.0 | 0.0 | 0.00 | 0.00 | 0.00 | 39 | 1009.2 |
| 20260504140653 | 70 | 166 | 0.0 | 3.0 | 0.00 | 0.00 | 0.00 | 39 | 1009.2 |
| 20260504140417 | 69 | 166 | 0.0 | 3.0 | 0.00 | 0.00 | 0.00 | 35 | 1009.2 |
| 20260504130152 | 65 | 345 | 0.0 | 0.0 | 0.00 | 0.00 | 0.00 | 43 | 1008.6 |
| 20260504120150 | 67 | 351 | 0.0 | 0.0 | 0.00 | 0.00 | 0.00 | 40 | 1008.1 |
| 20260504100147 | 69 | 283 | 0.0 | 4.0 | 0.00 | 0.00 | 0.00 | 37 | 1008.2 |
| 20260504081646 | 69 | 317 | 1.0 | 3.0 | 0.00 | 0.00 | 0.00 | 36 | 1007.6 |
| 20260504081145 | 69 | 326 | 0.0 | 3.0 | 0.00 | 0.00 | 0.00 | 36 | 1007.6 |
| 20260504080645 | 70 | 307 | 0.0 | 3.0 | 0.00 | 0.00 | 0.00 | 35 | 1007.8 |
| 20260504080144 | 70 | 316 | 0.0 | 4.0 | 0.00 | 0.00 | 0.00 | 34 | 1008.1 |
| 20260504070143 | 68 | 302 | 0.0 | 2.0 | 0.00 | 0.00 | 0.00 | 36 | 1008.2 |
| 20260504060141 | 73 | 221 | 0.0 | 5.0 | 0.00 | 0.00 | 0.00 | 27 | 1008.4 |
| 20260504050637 | 73 | 334 | 0.0 | 4.0 | 0.00 | 0.00 | 0.00 | 28 | 1008.5 |
| 20260504050622 | 74 | 306 | 0.0 | 10.0 | 0.00 | 0.00 | 0.00 | 26 | 1008.6 |
| 20260504045641 | 74 | 347 | 1.0 | 10.0 | 0.00 | 0.00 | 0.00 | 26 | 1008.5 |
| 20260504045140 | 74 | 323 | 2.0 | 7.0 | 0.00 | 0.00 | 0.00 | 26 | 1008.5 |
| 20260504044640 | 73 | 336 | 1.0 | 5.0 | 0.00 | 0.00 | 0.00 | 27 | 1008.6 |
| 20260504044140 | 73 | 326 | 2.0 | 5.0 | 0.00 | 0.00 | 0.00 | 27 | 1008.7 |
| 20260504043641 | 73 | 324 | 0.0 | 5.0 | 0.00 | 0.00 | 0.00 | 26 | 1008.7 |
| 20260504043140 | 74 | 285 | 2.0 | 6.0 | 0.00 | 0.00 | 0.00 | 26 | 1008.5 |
| 20260504042636 | 74 | 296 | 1.0 | 6.0 | 0.00 | 0.00 | 0.00 | 25 | 1008.4 |
| 20260504042135 | 74 | 302 | 1.0 | 4.0 | 0.00 | 0.00 | 0.00 | 25 | 1008.3 |
| 20260504041901 | 74 | 312 | 1.0 | 5.0 | 0.00 | 0.00 | 0.00 | 25 | 1008.5 |
| 20260504041139 | 74 | 289 | 1.0 | 5.0 | 0.00 | 0.00 | 0.00 | 25 | 1008.3 |
| 20260504040639 | 74 | 289 | 0.0 | 5.0 | 0.00 | 0.00 | 0.00 | 24 | 1008.2 |
| 20260504040139 | 75 | 279 | 1.0 | 11.0 | 0.00 | 0.00 | 0.00 | 23 | 1008.1 |
| 20260504035640 | 75 | 285 | 4.0 | 11.0 | 0.00 | 0.00 | 0.00 | 23 | 1007.9 |
| 20260504035139 | 75 | 276 | 2.0 | 6.0 | 0.00 | 0.00 | 0.00 | 22 | 1007.7 |
| 20260504034639 | 75 | 296 | 0.0 | 9.0 | 0.00 | 0.00 | 0.00 | 22 | 1007.6 |
| 20260504034359 | 76 | 309 | 1.0 | 9.0 | 0.00 | 0.00 | 0.00 | 22 | 1007.5 |
| 20260504033638 | 76 | 262 | 1.0 | 11.0 | 0.00 | 0.00 | 0.00 | 21 | 1007.5 |
| 20260504033138 | 76 | 258 | 4.0 | 11.0 | 0.00 | 0.00 | 0.00 | 21 | 1007.4 |
| 20260504032642 | 76 | 250 | 2.0 | 13.0 | 0.00 | 0.00 | 0.00 | 20 | 1007.3 |
| 20260504032638 | 76 | 272 | 3.0 | 11.0 | 0.00 | 0.00 | 0.00 | 21 | 1007.4 |
| 20260504031638 | 77 | 296 | 4.0 | 13.0 | 0.00 | 0.00 | 0.00 | 20 | 1007.3 |
| 20260504031138 | 77 | 279 | 2.0 | 12.0 | 0.00 | 0.00 | 0.00 | 19 | 1007.1 |
| 20260504030857 | 77 | 276 | 3.0 | 6.0 | 0.00 | 0.00 | 0.00 | 19 | 1007.0 |
| 20260504030138 | 77 | 234 | 0.0 | 4.0 | 0.00 | 0.00 | 0.00 | 19 | 1006.8 |
| 20260504025635 | 78 | 281 | 1.0 | 6.0 | 0.00 | 0.00 | 0.00 | 18 | 1006.5 |
| 20260504025137 | 78 | 290 | 3.0 | 10.0 | 0.00 | 0.00 | 0.00 | 18 | 1006.4 |
| 20260504024637 | 78 | 251 | 2.0 | 10.0 | 0.00 | 0.00 | 0.00 | 18 | 1006.3 |
| 20260504024137 | 78 | 264 | 3.0 | 7.0 | 0.00 | 0.00 | 0.00 | 17 | 1006.2 |
| 20260504023637 | 79 | 299 | 2.0 | 7.0 | 0.00 | 0.00 | 0.00 | 17 | 1006.1 |
| 20260504023137 | 79 | 289 | 3.0 | 11.0 | 0.00 | 0.00 | 0.00 | 16 | 1006.0 |
| 20260504022637 | 80 | 290 | 5.0 | 12.0 | 0.00 | 0.00 | 0.00 | 16 | 1005.8 |
| 20260504022132 | 80 | 336 | 4.0 | 12.0 | 0.00 | 0.00 | 0.00 | 15 | 1005.8 |
| 20260504021632 | 80 | 307 | 7.0 | 14.0 | 0.00 | 0.00 | 0.00 | 15 | 1005.7 |
| 20260504021359 | 80 | 298 | 7.0 | 14.0 | 0.00 | 0.00 | 0.00 | 15 | 1005.7 |
| 20260504020637 | 81 | 289 | 2.0 | 12.0 | 0.00 | 0.00 | 0.00 | 15 | 1005.6 |
| 20260504020405 | 81 | 272 | 6.0 | 12.0 | 0.00 | 0.00 | 0.00 | 14 | 1005.6 |
| 20260504015636 | 82 | 268 | 3.0 | 10.0 | 0.00 | 0.00 | 0.00 | 13 | 1005.6 |
| 20260504015136 | 82 | 275 | 4.0 | 11.0 | 0.00 | 0.00 | 0.00 | 13 | 1005.5 |
| 20260504014635 | 82 | 288 | 4.0 | 15.0 | 0.00 | 0.00 | 0.00 | 13 | 1005.5 |
| 20260504014405 | 83 | 316 | 6.0 | 15.0 | 0.00 | 0.00 | 0.00 | 12 | 1005.6 |